Other Surface Observations
Issued by NWS Great Falls, MT

Home | Current Version | Previous Version | Text Only | Print | Product List | Glossary On
Versions: 1 2 3 4 5 6 7 8 9 10 11 12 13 14 15 16 17 18 19 20 21 22 23 24 25 26 27 28 29 30 31 32 33 34 35 36 37 38 39 40 41 42 43 44 45 46 47 48 49 50
000
SXUS55 KTFX 251218
OSOTFX

AREA AWOS OBSERVATIONS
NATIONAL WEATHER SERVICE GREAT FALLS MT
0618 AM MDT Mon Jul 25 2016

METAR K7S0 251155Z AUTO 00000KT 10SM 09/08 A3011
METAR KRPX 251155Z AUTO 22006KT 10SM 13/05 A2996
METAR KS01 251155Z AUTO 00000KT 10SM 11/08 A3008



USA.gov is the U.S. government's official web portal to all federal, state and local government web resources and services.